(13) Egeria
ephemeris date magn radius delta ra dec elong phase
Today9 May 202512.02.359 AU2.902 AU06h27m+36°01'48.6°18.7°
Opposition19 Apr 202610.22.544 AU1.544 AU13h57m-04°45'173.2°2.7°
(13) Egeria - 2025-05-09
astro.vanbuitenen.nl


 
-1 year
-1 month
-1 day
Now
+1 day
+1 month
+1 year

The interactive orbit chart above shows the body's path through the solar system and its position at the given date. Green and blue lines are shown perpendicular to the ecliptic plane: Green if the path is above the ecliptic plane, blue if it is below. (Left-click and drag to rotate the view; Right-click and drag to move the view; Use scroll wheel to zoom in our out.)

The orbital elements of Egeria are:

            e (Eccentricity)                : 0.0849877
            a (Semimajor axis)              : 2.5771009
            i (Inclination)                 : 16.52551
            Ω (Longitude of ascending node) : 43.18830
            ω (Argument of perihelion)      : 79.09382
            M (Mean anomaly)                : 353.28831
            Epoch                           : 2025 May 05

            L (Longitude of perihelion)     : 121.82419
            B (Latitude of perihelion)      : 16.21871
            P (Orbital period in years)     : 4.14            
        

The light curve chart below shows the estimated development of the minor planet's magnitude.


The all-sky chart below shows the path of the minor planet over the same period as the light curve. The current position is marked yellow.





The following chart shows the path of the minor planet in the next few days. The field of view is optimized for (~10x50) binoculars and finderscopes. A more printer-friendly version of the same chart can be found below.




Ephemerides:
Date       Time       RA (2000)    DEC (2000)    delta   radius  elong  phase   PA    magn
2025-05-09 00:00 UT   06 27 11.6   +36 01 49     2.902    2.359   48.6   18.7    81   12.0 
2025-05-09 08:03 UT   06 27 55.1   +36 01 01     2.904    2.359   48.5   18.7    81   12.0 
2025-05-10 00:00 UT   06 29 21.5   +35 59 25     2.910    2.359   48.1   18.6    81   12.0 
2025-05-11 00:00 UT   06 31 31.7   +35 56 55     2.918    2.359   47.6   18.4    81   12.0 
2025-05-12 00:00 UT   06 33 42.1   +35 54 19     2.927    2.359   47.1   18.3    81   12.1 
2025-05-13 00:00 UT   06 35 52.8   +35 51 37     2.935    2.359   46.7   18.1    81   12.1 
2025-05-14 00:00 UT   06 38 03.7   +35 48 49     2.943    2.359   46.2   18.0    81   12.1 
2025-05-15 00:00 UT   06 40 14.8   +35 45 55     2.951    2.359   45.7   17.9    81   12.1 
2025-05-16 00:00 UT   06 42 26.0   +35 42 56     2.959    2.359   45.2   17.7    81   12.1 
2025-05-17 00:00 UT   06 44 37.5   +35 39 50     2.967    2.359   44.7   17.6    81   12.1 
2025-05-18 00:00 UT   06 46 49.2   +35 36 38     2.975    2.359   44.2   17.4    81   12.1 
2025-05-19 00:00 UT   06 49 01.0   +35 33 21     2.983    2.359   43.7   17.3    82   12.1 
2025-05-20 00:00 UT   06 51 13.0   +35 29 57     2.991    2.358   43.3   17.1    82   12.1 
2025-05-21 00:00 UT   06 53 25.1   +35 26 27     2.999    2.358   42.8   16.9    82   12.1 
2025-05-22 00:00 UT   06 55 37.4   +35 22 51     3.006    2.358   42.3   16.8    82   12.1 
2025-05-23 00:00 UT   06 57 49.8   +35 19 09     3.014    2.358   41.8   16.6    82   12.1 
2025-05-24 00:00 UT   07 00 02.4   +35 15 21     3.021    2.358   41.4   16.5    82   12.1 
2025-05-25 00:00 UT   07 02 15.1   +35 11 26     3.029    2.358   40.9   16.3    81   12.1 
2025-05-26 00:00 UT   07 04 27.8   +35 07 26     3.036    2.358   40.4   16.2    81   12.1 
2025-05-27 00:00 UT   07 06 40.7   +35 03 19     3.043    2.358   40.0   16.0    81   12.1 


    Terminology:
            
    delta:  distance between minor planet and earth in AU
    radius: distance between minor planet and sun in AU
    magn:   magnitude (brightness) estimate    
    ra:     right ascension in hours (24h = 360deg)
    dec:    declination in degrees
    elong:  elongation in degrees (angle sun-earth-minor planet)    
    phase:  phase angle in degrees (angle sun-minor planet-earth)        
    AU:     Astronomical Unit (mean distance between earth and sun: 149597870.7 km
    

Orbital elements provided by the MPC (Minor Planet Center).
Calculations by a modified version of AAPlus, a C# implementation of the AA+ project by PJ Naughter from the algorithms presented in the book "Astronomical Algorithms" by Jean Meeus.
NGC2000 dso catalog and star labels from VizieR as provided by the Strasbourg astronomical Data Center.
Tycho2 catalog from the ESO archive.